Weather Roundup
Issued by NWS

Home | Current Version | Previous Version | Text Only | Print | Product List | Glossary On
Versions: 1 2 3 4 5 6 7 8 9 10 11 12 13 14 15 16 17 18 19 20 21 22 23 24 25 26 27 28 29 30 31 32 33 34 35 36 37 38 39 40 41 42 43 44 45 46 47 48 49 50
656
NZUS93 KARX 260259
HRRWXR

CURRENT HOURLY OBSERVATIONS ACROSS
MUCH OF THE UPPER MISSISSIPPI VALLEY
NATIONAL WEATHER SERVICE LA CROSSE WI
1000 PM CDT SUN JUN 25 2017


...SOUTHEAST MINNESOTA...


CITY           SKY/WX    TMP DP  RH WIND       PRES   REMARKS
ROCHESTER      CLOUDY    56  44  64 W8        30.15S
ROCHESTER/MAYO CLOUDY    60  40  47 W7        30.14S
WINONA         CLEAR     55  46  71 CALM      30.12S
AUSTIN         MOCLDY    59  41  51 CALM      30.16R
ALBERT LEA     PTCLDY    57  41  54 CALM      30.17S
DODGE CENTER   MOCLDY    57  41  54 W6        30.15S
PRESTON        CLEAR     53  42  66 W7        30.15S
OWATONNA       MOCLDY    61  45  55 W9        30.16R
FARIBAULT      CLOUDY    61  45  55 W6        30.15S
$$

...ELSEWHERE IN MINNESOTA...


CITY           SKY/WX    TMP DP  RH WIND       PRES   REMARKS
MINNEAPOLIS    PTCLDY    63  41  44 W6        30.13R
INTNL FALLS    RAIN      50  47  89 W6        30.13R FOG
DULUTH         PTCLDY    48  44  86 NW6       30.10R
RED WING       CLEAR     55  43  62 CALM      30.11S
REDWOOD FALLS  PTCLDY    58  47  66 CALM      30.17R
MANKATO        CLOUDY    59  46  62 NW6       30.16F
WORTHINGTON    CLOUDY    60  45  57 N14       30.20F
FAIRMONT       CLOUDY    61  43  51 NW10      30.18S
$$

...SOUTHWEST WISCONSIN...


CITY           SKY/WX    TMP DP  RH WIND       PRES   REMARKS
LA CROSSE      PTCLDY    66  47  50 W8        30.10S
PRAIRIE DU CHI CLEAR     57  48  71 CALM      30.12S
BOSCOBEL       PTCLDY    55  50  83 SW3       30.12S
LONE ROCK      NOT AVBL
PLATTEVILLE    CLEAR     58  49  72 W5        30.14R
FORT MC COY    MOCLDY    55  50  86 CALM      30.12R
MAUSTON-NEW LI CLOUDY    56  51  83 W5        30.10R
VIROQUA        FAIR      55  48  75 W6        30.12R
WIS DELLS      PTCLDY    54  52  93 CALM      30.10S
$$

...ELSEWHERE IN WISCONSIN...


CITY           SKY/WX    TMP DP  RH WIND       PRES   REMARKS
MILWAUKEE      CLOUDY    59  54  83 W10       30.09R
MADISON        MOCLDY    56  53  90 SW3       30.10S
GREEN BAY      PTCLDY    57  54  89 W7        30.04R
EAU CLAIRE     NOT AVBL
BLACK RVR FLS  CLOUDY    55  49  80 NW3       30.11S
MEDFORD        CLEAR     49  48  93 W6        30.08S
WAUSAU         CLOUDY    54  48  80 W8        30.06R
WIS RAPIDS     CLOUDY    53  48  83 W7        30.10R
MARSHFIELD     MOCLDY    51  46  83 W6        30.09R
RICE LAKE      CLEAR     53  47  81 CALM      30.13R
$$

...NORTHEAST IOWA...


CITY           SKY/WX    TMP DP  RH WIND       PRES   REMARKS
WATERLOO       CLEAR     58  43  57 W7        30.16R
DUBUQUE        CLEAR     54  47  77 W6        30.15R
DECORAH        CLEAR     57  45  62 W5        30.13S
MASON CITY     MOCLDY    58  41  53 NW7       30.19S
CHARLES CITY   PTCLDY    55  45  67 W5        30.17R
OELWEIN        CLEAR     55  48  76 W7        30.16S
$$

...ELSEWHERE IN IOWA...


CITY           SKY/WX    TMP DP  RH WIND       PRES   REMARKS
DES MOINES     PTCLDY    67  42  40 NW3       30.19S
IOWA CITY      CLEAR     59  46  62 NW5       30.18R
FORT DODGE     PTCLDY    55  43  62 CALM      30.20S
MARSHALLTOWN   PTCLDY    58  44  60 NW6       30.18R
CEDAR RAPIDS   CLEAR     58  47  66 NW3       30.16R
$$

...NORTHERN ILLINOIS...


CITY           SKY/WX    TMP DP  RH WIND       PRES   REMARKS
CHICAGO-OHARE  PTCLDY    62  49  62 W8        30.10S
CHICAGO-MIDWAY PTCLDY    63  49  60 W8        30.11R
MOLINE         CLEAR     57  50  77 SW3       30.15R
ROCKFORD       MOCLDY    60  51  72 W6        30.13S
PEORIA         CLEAR     60  51  72 CALM      30.16R
$$

NOTE: "FAIR" INDICATES FEW OR NO CLOUDS BELOW 12,000 FEET WITH NO
SIGNIFICANT WEATHER AND/OR OBSTRUCTIONS TO VISIBILITY. WIND
SPEEDS ARE IN MILES-PER-HOUR.




USA.gov is the U.S. government's official web portal to all federal, state and local government web resources and services.